Terminal Aerodrome Forecast
Issued by NWS

Home | Current Version | Previous Version | Text Only | Print | Product List | Glossary On
Versions: 1 2 3 4 5 6 7 8 9 10 11 12 13 14 15 16 17 18 19 20 21 22 23 24 25 26 27 28 29 30 31 32 33 34 35 36 37 38 39 40 41 42 43 44 45 46 47 48 49 50
000
FTUS44 KFWD 260901 AAF
TAFAFW
TAF AMD
KAFW 260901Z 2609/2706 03015KT 3SM -RADZ BR OVC005
      TEMPO 2609/2613 1SM RADZ BR BKN003
     FM261800 01016KT 3SM -DZ BR OVC006
     FM270000 36015KT 2SM -RADZ BR OVC004=

USA.gov is the U.S. government's official web portal to all federal, state and local government web resources and services.